Location: Asheville, NC
(35.6000°N, 82.5500°W)
Time: 22:52:33
(UTC-05:00)

HO-68 - Pass Details

Date: 06 January 2018
Orbit: 1192 x 1205 km, 100.1° (Epoch: 17 January)

Event Time Altitude Azimuth Distance (km) Brightness Sun altitude
Rises 18:01:39 0° 145° (SE) 4,091 ? -6.2°
Reaches altitude 10° 18:04:21 10° 139° (SE) 3,128 ? -6.8°
Maximum altitude 18:11:07 47° 68° (ENE) 1,540 ? -8.0°
Drops below altitude 10° 18:17:53 10° 358° (N) 3,134 ? -9.3°
Sets 18:20:35 0° 353° (N) 4,100 ? -9.8°
